C/2011 O1 ( LINEAR )

Japanese version
Home page
Updated on April 29, 2014

---------------------------------------------------------------------

* Profile

Discovery Date July 31, 2011
Magnitude 17.6 mag
Discoverer Lincoln Laboratory Near-Earth Asteroid Research project

* Pictures

* Orbital Elements

Epoch 2012 Aug. 21.0 TT = JDT 2456160.5
T 2012 Aug. 18.47094 TT                                 MPC
q   3.8906521            (2000.0)            P               Q
z  +0.0008219      Peri.  232.38263     +0.18297547     +0.14503869
 +/-0.0000007      Node    89.81664     -0.25418382     +0.96240727
e   0.9968023      Incl.   76.49876     -0.94968972     -0.22964325
From 275 observations 2011 May 23-2014 Feb. 28, mean residual 0".4.

* Finding Charts

* Magnitudes Graph

        m1 = 6.5 + 5 log d + 10.0 log r  [ ,0]  (             - 2012 Aug. 18)
        m1 = 3.5 + 5 log d + 15.0 log r  [0, ]  (2012 Aug. 18 -             )

---------------------------------------------------------------------

The orbital elements are published on M.P.E.C. 2014-E18.
The charts are made with StellaNavigator Ver.8 (AstroArts).
The magnitudes graphs are made with Comet for Windows.

---------------------------------------------------------------------

Copyright(C) Seiichi Yoshida (comet@aerith.net). All rights reserved.